Starlink 32224

operational
NORAD ID: 60941 Int'l Des: 2024-155 Owner: SPXS Country: US Constellation: starlink
LEOCIRCULAR

Starlink 32224について

説明を読み込み中...

リアルタイム位置

3D地球を読み込み中...

次回通過

高度履歴

Altitude vs Time

uPlot chart will show altitude changes over time

軌道要素

1 60941U 24155T 25306.47936641 .00002640 00000-0 10128-3 0 9990
2 60941 53.1607 0.6034 0001268 81.2446 278.8698 15.30186258 66873
Epoch: Nov 2, 2025 • Age: 17 hours

現在のステータス

高度 478.2 km
速度 7.63 km/s
衛星直下点 40.59°N, 80.58°W
打ち上げ日 Aug 31, 2024
運用期間 1.1 years
タイプ internet

技術仕様

分類 Payload
質量 730.00 kg
乾燥質量 700.00 kg
総質量 730.00 kg
長さ 0.30 m
直径 4.10 m
スパン 29.00 m
形状 Box + pan
製造者 SPXS
バスタイプ Starlink V2M
フェーズステータス In Orbit
所有者/国 SPXS/US

大規模コンステレーション

Loading constellations...